EW7401 Weather Reports


Display with metric or nautical units.
time (UTC)temp
F
wind
direction
speed
MPH
gust
MPH
rain 1hr
in
rain 24hr
in
rain mn
in
humidity
%
barometer
mb
20210917234105 55 155 5.0 9.0 0.00 0.35 0.35 88 996.0
20210917233605 55 166 4.0 8.0 0.00 0.35 0.35 88 996.3
20210917233105 55 146 7.0 12.0 0.00 0.35 0.35 88 996.1
20210917232605 55 122 7.0 10.0 0.00 0.35 0.35 88 996.1
20210917232105 55 129 6.0 10.0 0.00 0.35 0.35 88 996.5
20210917231604 55 132 7.0 16.0 0.00 0.35 0.35 88 996.5
20210917231105 55 146 6.0 12.0 0.00 0.35 0.35 88 996.5
20210917230605 55 132 7.0 12.0 0.00 0.35 0.35 88 996.6
20210917230106 55 136 6.0 12.0 0.00 0.35 0.35 88 996.6
20210917225605 54 133 5.0 6.0 0.00 0.35 0.35 88 997.0
20210917225105 54 139 6.0 10.0 0.00 0.35 0.35 88 996.9
20210917224605 54 135 5.0 8.0 0.00 0.35 0.35 88 997.1
20210917224104 54 124 6.0 9.0 0.00 0.35 0.35 88 997.1
20210917223605 54 121 7.0 10.0 0.00 0.35 0.35 87 997.2
20210917223105 55 114 5.0 6.0 0.00 0.35 0.35 87 997.3
20210917222605 55 91 5.0 6.0 0.01 0.35 0.35 86 997.4
20210917222105 55 92 4.0 6.0 0.01 0.35 0.35 86 997.4
20210917221605 55 99 3.0 5.0 0.01 0.35 0.35 85 997.6
20210917221104 55 84 2.0 3.0 0.01 0.35 0.35 85 997.7
20210917220605 55 125 2.0 3.0 0.01 0.35 0.35 85 997.6
20210917220105 55 145 1.0 3.0 0.01 0.35 0.35 85 997.7
20210917215605 55 133 1.0 3.0 0.01 0.35 0.35 85 997.7
20210917215105 55 180 2.0 5.0 0.01 0.35 0.35 85 997.6
20210917214604 55 150 3.0 5.0 0.01 0.35 0.35 84 997.6
20210917214105 55 161 4.0 7.0 0.01 0.35 0.35 84 997.6
20210917213604 55 143 5.0 10.0 0.01 0.35 0.35 85 997.5
20210917213105 55 144 6.0 10.0 0.01 0.35 0.35 85 997.6
20210917212604 55 152 7.0 10.0 0.00 0.35 0.35 85 997.6
20210917212104 55 147 6.0 9.0 0.00 0.35 0.35 86 997.5
20210917211604 55 144 7.0 10.0 0.00 0.35 0.35 87 997.5
20210917211105 54 142 7.0 10.0 0.00 0.35 0.35 87 997.6
20210917210605 54 140 6.0 10.0 0.00 0.35 0.35 87 997.6
20210917210106 54 144 6.0 10.0 0.00 0.35 0.35 88 997.6
20210917205604 54 152 5.0 12.0 0.00 0.35 0.35 88 997.9
20210917205105 54 147 4.0 7.0 0.00 0.35 0.35 88 998.0
20210917204605 54 154 3.0 7.0 0.00 0.35 0.35 89 998.1
20210917204105 54 139 6.0 7.0 0.00 0.35 0.35 89 998.1
20210917203605 54 136 3.0 6.0 0.00 0.35 0.35 89 998.1
20210917203105 54 131 3.0 6.0 0.00 0.35 0.35 90 998.2
20210917202605 54 142 5.0 6.0 0.00 0.35 0.35 90 998.3
20210917202105 54 137 5.0 7.0 0.00 0.35 0.35 90 998.2
20210917201605 54 132 6.0 6.0 0.00 0.35 0.35 90 998.1
20210917201106 53 129 5.0 6.0 0.00 0.35 0.35 90 998.4
20210917200605 53 135 5.0 7.0 0.00 0.35 0.35 90 998.6
20210917200105 53 124 5.0 7.0 0.01 0.35 0.35 90 998.6
20210917195605 53 135 5.0 7.0 0.01 0.35 0.35 89 998.9
20210917195105 53 139 4.0 8.0 0.01 0.35 0.35 90 998.9
20210917194605 53 135 6.0 12.0 0.02 0.35 0.35 90 999.0
20210917194105 53 138 9.0 13.0 0.02 0.35 0.35 90 999.0
20210917193604 53 130 7.0 12.0 0.02 0.35 0.35 90 999.1
20210917193105 53 124 9.0 12.0 0.02 0.35 0.35 91 999.2
20210917192605 53 129 8.0 10.0 0.02 0.35 0.35 91 999.3
20210917192105 53 130 7.0 10.0 0.02 0.35 0.35 91 999.4
20210917191605 53 132 9.0 12.0 0.03 0.35 0.35 91 999.6
20210917191105 53 139 7.0 12.0 0.03 0.35 0.35 92 999.7
20210917190605 53 155 6.0 10.0 0.04 0.35 0.35 92 1000.1
20210917190105 53 137 3.0 6.0 0.03 0.34 0.34 92 1000.2
20210917185605 53 149 3.0 9.0 0.04 0.34 0.34 93 1000.2
20210917185105 53 144 3.0 6.0 0.05 0.34 0.34 93 1000.2
20210917184605 53 136 3.0 9.0 0.04 0.33 0.33 93 1000.1
20210917184105 53 144 4.0 7.0 0.05 0.33 0.33 94 1000.2
20210917183605 53 141 2.0 5.0 0.06 0.33 0.33 94 1000.2
20210917183106 53 126 3.0 6.0 0.07 0.33 0.33 94 1000.2
20210917182604 53 109 3.0 5.0 0.06 0.32 0.32 94 1000.4
20210917182106 53 110 0.0 5.0 0.07 0.32 0.32 94 1000.6
20210917181605 53 123 0.0 0.0 0.06 0.31 0.31 94 1000.7
20210917181105 53 133 0.0 0.0 0.07 0.31 0.31 94 1000.8
20210917180605 53 124 0.0 0.0 0.07 0.31 0.31 94 1000.8
20210917180105 53 134 0.0 1.0 0.07 0.31 0.31 94 1000.9
20210917175604 53 127 0.0 5.0 0.07 0.30 0.30 94 1001.0
20210917175105 53 110 0.0 1.0 0.07 0.29 0.29 94 1001.2
20210917174605 53 110 0.0 3.0 0.07 0.29 0.29 94 1001.2
20210917174104 53 70 0.0 1.0 0.07 0.28 0.28 94 1001.3
20210917173605 53 70 0.0 2.0 0.06 0.28 0.28 94 1001.3
20210917173105 53 77 0.0 0.0 0.05 0.26 0.26 94 1001.3
20210917172604 53 78 0.0 0.0 0.06 0.26 0.26 94 1001.4
20210917172106 53 78 0.0 0.0 0.05 0.25 0.25 94 1001.5
20210917171604 53 78 0.0 0.0 0.05 0.25 0.25 94 1001.5
20210917171105 53 78 0.0 1.0 0.05 0.24 0.24 94 1001.6
20210917170605 53 78 0.0 1.0 0.04 0.24 0.24 94 1001.7
20210917170105 53 78 1.0 3.0 0.04 0.24 0.24 94 1001.8
20210917165605 53 82 2.0 3.0 0.04 0.23 0.23 94 1001.8
20210917165105 53 82 3.0 5.0 0.03 0.22 0.22 94 1001.9
20210917164605 53 80 5.0 5.0 0.04 0.22 0.22 94 1001.8
20210917164104 53 81 5.0 6.0 0.03 0.21 0.21 94 1002.1
20210917163605 53 84 6.0 9.0 0.04 0.21 0.21 94 1002.2
20210917163104 53 90 7.0 10.0 0.04 0.21 0.21 94 1002.2
20210917162604 53 88 10.0 12.0 0.03 0.20 0.20 94 1002.3
20210917162105 53 87 10.0 12.0 0.04 0.20 0.20 94 1002.3
20210917161604 53 96 10.0 13.0 0.04 0.20 0.20 94 1002.4
20210917161106 53 107 11.0 13.0 0.04 0.20 0.20 94 1002.4
20210917160605 53 126 3.0 7.0 0.04 0.20 0.20 94 1002.6
20210917160105 53 64 1.0 3.0 0.04 0.20 0.20 95 1002.6
20210917155604 53 45 1.0 3.0 0.04 0.19 0.19 95 1002.8
20210917155104 53 42 0.0 3.0 0.04 0.19 0.19 94 1002.8
20210917154604 53 44 1.0 3.0 0.04 0.18 0.18 94 1002.8
20210917154106 52 49 2.0 3.0 0.04 0.18 0.18 94 1003.0
20210917153605 52 48 3.0 3.0 0.04 0.17 0.17 94 1003.1
20210917153104 52 45 3.0 5.0 0.04 0.17 0.17 94 1003.3
20210917152604 52 42 3.0 5.0 0.04 0.17 0.17 94 1003.4
20210917152106 52 26 2.0 5.0 0.04 0.17 0.17 94 1003.6
20210917151605 52 2 3.0 6.0 0.04 0.17 0.17 94 1003.6
20210917151105 52 349 5.0 6.0 0.04 0.16 0.16 94 1003.8
20210917150605 52 4 3.0 6.0 0.05 0.16 0.16 94 1003.8
20210917150105 52 349 4.0 6.0 0.05 0.16 0.16 94 1003.9
20210917145604 52 353 3.0 6.0 0.05 0.15 0.15 93 1003.8
20210917145105 52 345 5.0 7.0 0.05 0.15 0.15 93 1003.9
20210917144604 52 350 4.0 10.0 0.05 0.14 0.14 93 1003.9
20210917144105 52 348 5.0 10.0 0.05 0.14 0.14 93 1004.0
20210917143604 52 346 6.0 10.0 0.05 0.13 0.13 93 1004.2
20210917143105 52 349 6.0 12.0 0.06 0.13 0.13 93 1004.3
20210917142605 52 352 6.0 10.0 0.06 0.13 0.13 93 1004.4
20210917142104 52 350 5.0 8.0 0.06 0.13 0.13 93 1004.4
20210917141605 52 351 5.0 8.0 0.06 0.13 0.13 93 1004.5
20210917141104 52 344 5.0 12.0 0.06 0.12 0.12 92 1004.5
20210917140604 52 346 6.0 12.0 0.06 0.11 0.11 92 1004.8
20210917140104 52 354 6.0 10.0 0.06 0.11 0.11 92 1004.9
20210917135605 52 342 7.0 12.0 0.06 0.10 0.10 92 1004.9
20210917135106 52 350 6.0 12.0 0.06 0.10 0.10 92 1004.9
20210917134604 52 349 6.0 10.0 0.06 0.09 0.09 92 1004.9
20210917134104 52 349 7.0 10.0 0.06 0.09 0.09 92 1004.9
20210917133604 52 354 5.0 9.0 0.06 0.09 0.09 92 1005.0
20210917133104 52 351 5.0 9.0 0.05 0.08 0.08 92 1005.1
20210917132604 52 350 6.0 9.0 0.05 0.08 0.08 91 1005.2
20210917132105 52 355 7.0 10.0 0.05 0.07 0.07 91 1005.3
20210917131604 52 355 7.0 10.0 0.05 0.07 0.07 91 1005.3
20210917131104 52 354 7.0 12.0 0.04 0.06 0.06 91 1005.4
20210917130604 52 351 6.0 10.0 0.03 0.06 0.06 91 1005.4
20210917130104 52 354 8.0 10.0 0.03 0.06 0.06 91 1005.4
20210917125604 52 354 7.0 10.0 0.03 0.05 0.05 90 1005.4
20210917125105 53 353 7.0 10.0 0.03 0.05 0.05 90 1005.4
20210917124604 53 355 7.0 10.0 0.02 0.04 0.04 90 1005.5
20210917124105 53 352 9.0 12.0 0.02 0.04 0.04 90 1005.5
20210917123604 53 354 7.0 10.0 0.02 0.03 0.03 90 1005.6
20210917123104 53 354 6.0 7.0 0.02 0.03 0.03 90 1005.8
20210917122604 53 354 5.0 7.0 0.02 0.03 0.03 89 1005.8
20210917122106 53 354 3.0 6.0 0.02 0.02 0.02 89 1005.8
20210917121604 53 352 3.0 5.0 0.02 0.02 0.02 89 1005.8
20210917121105 53 336 3.0 7.0 0.02 0.02 0.02 89 1005.9
20210917120604 53 355 5.0 8.0 0.02 0.02 0.02 88 1005.9
20210917120104 53 354 6.0 9.0 0.02 0.02 0.02 88 1005.9
20210917115605 53 353 5.0 8.0 0.02 0.02 0.02 88 1005.9
20210917115105 53 343 3.0 6.0 0.02 0.02 0.02 88 1005.9
20210917114605 53 351 6.0 7.0 0.02 0.02 0.02 88 1006.1
20210917114104 54 359 4.0 6.0 0.02 0.02 0.02 87 1006.1
20210917113605 54 6 3.0 3.0 0.02 0.02 0.02 87 1006.2
20210917113104 54 350 2.0 5.0 0.02 0.02 0.02 86 1006.2
20210917112604 53 330 2.0 3.0 0.01 0.01 0.01 85 1006.3
20210917112104 54 357 0.0 2.0 0.01 0.01 0.01 84 1006.4
20210917111605 54 275 0.0 0.0 0.01 0.01 0.01 84 1006.4
20210917111104 54 275 0.0 0.0 0.01 0.01 0.01 84 1006.5
20210917110604 54 275 0.0 0.0 0.00 0.00 0.00 83 1006.5
20210917110105 54 275 0.0 0.0 0.00 0.00 0.00 82 1006.6
20210917105604 54 274 0.0 0.0 0.00 0.00 0.00 82 1006.7
20210917105104 54 274 0.0 0.0 0.00 0.00 0.00 81 1006.8
20210917104604 54 274 0.0 0.0 0.00 0.00 0.00 80 1006.7
20210917104105 54 273 0.0 1.0 0.00 0.00 0.00 80 1006.8
20210917103604 54 273 0.0 1.0 0.00 0.00 0.00 79 1006.7
20210917103104 54 273 0.0 2.0 0.00 0.00 0.00 79 1006.7
20210917102604 54 257 0.0 0.0 0.00 0.00 0.00 79 1006.9
20210917102104 54 257 0.0 1.0 0.00 0.00 0.00 79 1006.9
20210917101604 54 253 0.0 1.0 0.00 0.00 0.00 79 1006.8
20210917101104 54 253 0.0 0.0 0.00 0.00 0.00 79 1006.9
20210917100604 54 253 0.0 0.0 0.00 0.00 0.00 79 1006.9
20210917100105 54 253 0.0 1.0 0.00 0.00 0.00 78 1007.0
20210917095604 54 252 0.0 0.0 0.00 0.00 0.00 78 1007.0
20210917095104 54 252 0.0 0.0 0.00 0.00 0.00 79 1007.2
20210917094604 54 252 0.0 0.0 0.00 0.00 0.00 78 1007.3
20210917094104 54 252 1.0 3.0 0.00 0.00 0.00 79 1007.4
20210917093604 54 256 1.0 3.0 0.00 0.00 0.00 79 1007.5
20210917093104 54 239 1.0 3.0 0.00 0.00 0.00 79 1007.5
20210917092604 54 240 2.0 5.0 0.00 0.00 0.00 80 1007.5
20210917092104 54 173 0.0 1.0 0.00 0.00 0.00 80 1007.5
20210917091604 54 164 1.0 3.0 0.00 0.00 0.00 81 1007.6
20210917091104 54 55 3.0 3.0 0.00 0.00 0.00 81 1007.4
20210917090604 54 309 0.0 0.0 0.00 0.00 0.00 81 1007.8
20210917090104 54 311 1.0 2.0 0.00 0.00 0.00 81 1007.9
20210917085605 54 0 0.0 0.0 0.00 0.00 0.00 81 1008.0
20210917085104 54 0 0.0 1.0 0.00 0.00 0.00 81 1007.7
20210917084604 54 0 0.0 2.0 0.00 0.00 0.00 81 1007.9
20210917084104 54 12 2.0 3.0 0.00 0.00 0.00 81 1007.6
20210917083605 54 57 2.0 3.0 0.00 0.00 0.00 81 1007.9
20210917083104 54 31 1.0 2.0 0.00 0.00 0.00 81 1008.0
20210917082605 54 26 2.0 7.0 0.00 0.00 0.00 81 1008.0
20210917082104 54 25 4.0 7.0 0.00 0.00 0.00 81 1007.7
20210917081604 54 355 2.0 6.0 0.00 0.00 0.00 81 1008.1
20210917081104 54 24 0.0 1.0 0.00 0.00 0.00 80 1008.2
20210917080604 54 24 0.0 0.0 0.00 0.00 0.00 80 1008.5
20210917080104 54 26 0.0 2.0 0.00 0.00 0.00 81 1008.5
20210917075604 54 290 0.0 0.0 0.00 0.00 0.00 80 1008.4
20210917075105 54 355 0.0 1.0 0.00 0.00 0.00 81 1008.4
20210917074604 54 282 0.0 3.0 0.00 0.00 0.00 81 1008.5
20210917074104 54 258 0.0 1.0 0.00 0.00 0.00 81 1008.6
20210917073604 54 299 0.0 0.0 0.00 0.00 0.00 81 1008.7
20210917073105 54 16 0.0 0.0 0.00 0.00 0.00 82 1008.6
20210917072605 54 17 0.0 0.0 0.00 0.00 0.00 82 1008.5
20210917072104 54 307 0.0 0.0 0.00 0.00 0.00 82 1008.9
20210917071605 54 25 0.0 3.0 0.00 0.00 0.00 83 1008.6
20210917071104 54 351 0.0 0.0 0.00 0.00 0.00 82 1009.1
20210917070605 54 261 0.0 0.0 0.00 0.00 0.00 83 1009.2
20210917070105 55 282 0.0 0.0 0.00 0.00 0.00 82 1009.2
20210917065605 55 265 0.0 0.0 0.00 0.00 0.00 82 1009.3
20210917065104 55 24 0.0 1.0 0.00 0.00 0.00 82 1009.0
20210917064604 55 4 0.0 1.0 0.00 0.00 0.00 81 1009.1
20210917064104 55 267 0.0 0.0 0.00 0.00 0.00 81 1009.4
20210917063604 55 266 0.0 0.0 0.00 0.00 0.00 80 1009.5
20210917063105 55 12 0.0 2.0 0.00 0.00 0.00 79 1009.1
20210917062604 55 264 0.0 0.0 0.00 0.00 0.00 78 1009.5
20210917062104 55 263 0.0 0.0 0.00 0.00 0.00 77 1009.5
20210917061604 55 262 0.0 0.0 0.00 0.00 0.00 75 1009.5
20210917061104 55 262 0.0 0.0 0.00 0.00 0.00 74 1009.6
20210917060603 55 262 0.0 0.0 0.00 0.00 0.00 73 1009.6
20210917060104 55 262 0.0 0.0 0.00 0.00 0.00 73 1009.6
20210917055604 55 262 0.0 0.0 0.00 0.00 0.00 73 1009.6
20210917055106 55 262 0.0 0.0 0.00 0.00 0.00 73 1009.6
20210917054605 55 262 0.0 0.0 0.00 0.00 0.00 73 1009.7
20210917054106 55 262 0.0 0.0 0.00 0.00 0.00 73 1009.7
20210917053606 55 262 0.0 0.0 0.00 0.00 0.00 72 1009.9
20210917053106 55 262 0.0 0.0 0.00 0.00 0.00 72 1010.0
20210917052606 55 262 0.0 0.0 0.00 0.00 0.00 71 1010.0
20210917052105 55 262 0.0 0.0 0.00 0.00 0.00 70 1010.1
20210917051605 55 262 0.0 0.0 0.00 0.00 0.00 69 1010.1
20210917051106 55 262 0.0 0.0 0.00 0.00 0.00 69 1010.1
20210917050606 56 262 0.0 0.0 0.00 0.00 0.00 69 1010.2
20210917050105 56 262 0.0 0.0 0.00 0.00 0.00 69 1010.2
20210917045605 56 262 0.0 0.0 0.00 0.00 0.00 69 1010.3
20210917045105 56 262 0.0 0.0 0.00 0.00 0.00 69 1010.4
20210917044605 56 262 0.0 0.0 0.00 0.00 0.00 69 1010.5
20210917044105 56 262 0.0 0.0 0.00 0.00 0.00 69 1010.5
20210917043606 56 262 0.0 0.0 0.00 0.00 0.00 69 1010.6
20210917043105 56 262 0.0 0.0 0.00 0.00 0.00 69 1010.6
20210917042606 56 262 0.0 0.0 0.00 0.00 0.00 68 1010.7
20210917042105 56 262 0.0 0.0 0.00 0.00 0.00 66 1010.6
20210917041606 56 262 0.0 0.0 0.00 0.00 0.00 66 1010.7
20210917041106 56 262 0.0 0.0 0.00 0.00 0.00 66 1010.7
20210917040605 56 263 0.0 0.0 0.00 0.00 0.00 66 1011.0
20210917040106 56 259 0.0 0.0 0.00 0.00 0.00 66 1011.1
20210917035605 56 257 0.0 1.0 0.00 0.00 0.00 67 1011.1
20210917035105 56 258 0.0 3.0 0.00 0.00 0.00 67 1011.2
20210917034605 56 274 0.0 3.0 0.00 0.00 0.00 67 1011.2
20210917034105 56 258 0.0 2.0 0.00 0.00 0.00 67 1011.3
20210917033605 56 259 0.0 2.0 0.00 0.00 0.00 67 1011.3
20210917033106 56 261 0.0 0.0 0.00 0.00 0.00 66 1011.5
20210917032605 56 259 0.0 2.0 0.00 0.00 0.00 65 1011.4
20210917032105 56 257 0.0 3.0 0.00 0.00 0.00 65 1011.3
20210917031605 56 268 0.0 0.0 0.00 0.00 0.00 64 1011.3
20210917031105 56 267 0.0 0.0 0.00 0.00 0.00 64 1011.3
20210917030605 56 272 0.0 1.0 0.00 0.00 0.00 64 1011.4
20210917030105 56 272 0.0 0.0 0.00 0.00 0.00 65 1011.6
20210917025605 56 310 0.0 0.0 0.00 0.00 0.00 66 1011.7
20210917025105 56 317 0.0 0.0 0.00 0.00 0.00 65 1011.9
20210917024606 56 317 0.0 0.0 0.00 0.00 0.00 65 1011.9
20210917024105 56 317 0.0 0.0 0.00 0.00 0.00 65 1012.0
20210917023605 56 317 0.0 0.0 0.00 0.00 0.00 66 1012.2
20210917023105 56 317 0.0 0.0 0.00 0.00 0.00 66 1012.1
20210917022606 56 318 0.0 0.0 0.00 0.00 0.00 66 1012.1
20210917022106 56 318 0.0 0.0 0.00 0.00 0.00 65 1012.2
20210917021605 56 317 0.0 0.0 0.00 0.00 0.00 65 1012.4
20210917021105 56 318 0.0 0.0 0.00 0.00 0.00 65 1012.5
20210917020605 57 318 0.0 0.0 0.00 0.00 0.00 65 1012.7
20210917020105 57 318 0.0 0.0 0.00 0.00 0.00 65 1012.7
20210917015605 57 319 0.0 0.0 0.00 0.00 0.00 65 1012.7
20210917015106 57 330 0.0 0.0 0.00 0.00 0.00 65 1012.7
20210917014605 57 340 0.0 0.0 0.00 0.00 0.00 64 1012.7
20210917014105 58 340 0.0 0.0 0.00 0.00 0.00 63 1012.8
20210917013605 58 342 0.0 0.0 0.00 0.00 0.00 63 1012.9
20210917013105 58 343 0.0 0.0 0.00 0.00 0.00 62 1013.0
20210917012604 58 343 0.0 0.0 0.00 0.00 0.00 62 1013.1
20210917012106 58 336 0.0 0.0 0.00 0.00 0.00 62 1013.2
20210917011605 58 318 0.0 0.0 0.00 0.00 0.00 62 1013.3
20210917011105 59 314 0.0 0.0 0.00 0.00 0.00 62 1013.4
20210917010606 59 325 0.0 0.0 0.00 0.00 0.00 62 1013.5
20210917010105 59 327 0.0 0.0 0.00 0.00 0.00 61 1013.6
20210917005605 59 329 0.0 0.0 0.00 0.00 0.00 60 1013.8
20210917005105 59 320 0.0 0.0 0.00 0.00 0.00 61 1013.9
20210917004605 59 324 0.0 0.0 0.00 0.00 0.00 61 1014.0
20210917004105 59 314 0.0 0.0 0.00 0.00 0.00 62 1014.2
20210917003605 60 321 0.0 0.0 0.00 0.00 0.00 62 1014.3
20210917003105 60 320 0.0 0.0 0.00 0.00 0.00 62 1014.3
20210917002605 60 322 0.0 3.0 0.00 0.00 0.00 62 1014.3
20210917002105 60 328 0.0 0.0 0.00 0.00 0.00 61 1014.4
20210917001605 60 323 0.0 1.0 0.00 0.00 0.00 62 1014.5
20210917001105 60 319 0.0 0.0 0.00 0.00 0.00 60 1014.6
20210917000605 60 312 0.0 3.0 0.00 0.00 0.00 59 1014.7
20210917000105 60 324 0.0 2.0 0.00 0.00 0.00 59 1014.8
20210916235605 60 316 0.0 2.0 0.00 0.00 0.00 59 1014.8
20210916235106 61 324 0.0 1.0 0.00 0.00 0.00 60 1014.9
20210916234605 61 324 0.0 3.0 0.00 0.00 0.00 59 1015.1